EW8702 Weather Reports


Display with metric or nautical units.
time (UTC)temp
F
wind
direction
speed
MPH
gust
MPH
rain 1hr
in
rain 24hr
in
rain mn
in
humidity
%
barometer
mb
20260906153122 63 244 1.0 3.0 0.00 0.00 0.00 51 1017.7
20260906152143 61 254 0.0 2.0 0.00 0.00 0.00 53 1017.6
20260906151122 58 254 0.0 2.0 0.00 0.00 0.00 53 1017.5
20260906150122 57 253 0.0 1.0 0.00 0.00 0.00 59 1017.6
20260906145122 55 0 0.0 1.0 0.00 0.00 0.00 60 1017.7
20260906144122 55 0 0.0 1.0 0.00 0.00 0.00 63 1017.6
20260906143122 54 0 0.0 1.0 0.00 0.00 0.00 62 1017.6
20260906142122 53 0 0.0 1.0 0.00 0.00 0.00 63 1017.5
20260906141122 52 0 0.0 0.0 0.00 0.00 0.00 61 1017.5
20260906140121 52 337 0.0 1.0 0.00 0.00 0.00 61 1017.5
20260906135121 51 336 0.0 1.0 0.00 0.00 0.00 59 1017.6
20260906134122 51 336 0.0 1.0 0.00 0.00 0.00 58 1017.4
20260906133121 51 336 1.0 2.0 0.00 0.00 0.00 58 1017.3
20260906132122 52 336 0.0 1.0 0.00 0.00 0.00 57 1017.2
20260906131121 52 336 0.0 2.0 0.00 0.00 0.00 55 1017.1
20260906130121 52 341 0.0 3.0 0.00 0.00 0.00 55 1017.1
20260906125143 51 348 0.0 3.0 0.00 0.00 0.00 56 1017.2
20260906124121 51 317 2.0 5.0 0.00 0.00 0.00 57 1017.2
20260906123143 51 280 0.0 3.0 0.00 0.00 0.00 58 1017.2
20260906121122 52 278 0.0 1.0 0.00 0.00 0.00 58 1017.2
20260906120143 52 338 0.0 1.0 0.00 0.00 0.00 57 1017.2
20260906115122 52 0 0.0 0.0 0.00 0.00 0.00 56 1017.1
20260906114122 52 0 0.0 0.0 0.00 0.00 0.00 55 1017.1
20260906113122 52 0 0.0 0.0 0.00 0.00 0.00 54 1017.1
20260906112122 52 0 0.0 0.0 0.00 0.00 0.00 55 1017.1
20260906111122 53 338 0.0 2.0 0.00 0.00 0.00 54 1017.1
20260906110122 54 337 0.0 2.0 0.00 0.00 0.00 55 1017.1
20260906105122 54 0 0.0 0.0 0.00 0.00 0.00 52 1017.0
20260906104122 54 0 0.0 0.0 0.00 0.00 0.00 51 1017.0
20260906103122 54 0 0.0 0.0 0.00 0.00 0.00 50 1017.0
20260906102122 54 339 0.0 2.0 0.00 0.00 0.00 51 1016.7
20260906101122 54 0 0.0 0.0 0.00 0.00 0.00 51 1016.8
20260906100123 54 339 0.0 2.0 0.00 0.00 0.00 51 1016.9
20260906095143 53 0 0.0 0.0 0.00 0.00 0.00 53 1016.9
20260906094122 53 0 0.0 0.0 0.00 0.00 0.00 54 1016.8
20260906093122 53 259 0.0 2.0 0.00 0.00 0.00 53 1016.8
20260906092122 53 259 0.0 3.0 0.00 0.00 0.00 53 1016.8
20260906091122 53 259 0.0 2.0 0.00 0.00 0.00 55 1016.6
20260906090122 53 0 0.0 1.0 0.00 0.00 0.00 55 1016.6
20260906085122 54 256 1.0 3.0 0.00 0.00 0.00 54 1016.6
20260906084122 54 249 0.0 2.0 0.00 0.00 0.00 55 1016.6
20260906083122 55 249 0.0 1.0 0.00 0.00 0.00 54 1016.6
20260906082122 55 249 1.0 2.0 0.00 0.00 0.00 52 1016.6
20260906081122 55 244 1.0 3.0 0.00 0.00 0.00 52 1016.6
20260906080122 56 242 0.0 2.0 0.00 0.00 0.00 52 1016.8
20260906075143 56 0 0.0 0.0 0.00 0.00 0.00 51 1016.8
20260906074122 56 243 0.0 1.0 0.00 0.00 0.00 49 1016.8
20260906073122 56 243 0.0 2.0 0.00 0.00 0.00 51 1016.7
20260906072122 57 0 0.0 0.0 0.00 0.00 0.00 51 1016.8
20260906071122 56 276 0.0 1.0 0.00 0.00 0.00 54 1016.6
20260906070143 56 276 0.0 1.0 0.00 0.00 0.00 50 1016.7
20260906065122 57 276 0.0 2.0 0.00 0.00 0.00 50 1016.6
20260906064122 58 280 1.0 2.0 0.00 0.00 0.00 49 1016.6
20260906063122 58 0 0.0 0.0 0.00 0.00 0.00 44 1016.5
20260906062122 57 332 0.0 1.0 0.00 0.00 0.00 46 1016.6
20260906061122 57 332 0.0 3.0 0.00 0.00 0.00 45 1016.4
20260906060122 57 336 0.0 3.0 0.00 0.00 0.00 48 1016.4
20260906055122 58 352 0.0 2.0 0.00 0.00 0.00 49 1016.3
20260906054122 58 352 0.0 2.0 0.00 0.00 0.00 48 1016.3
20260906053122 58 302 1.0 3.0 0.00 0.00 0.00 51 1016.3
20260906052122 59 324 1.0 3.0 0.00 0.00 0.00 48 1016.4
20260906051122 59 352 0.0 1.0 0.00 0.00 0.00 46 1016.4
20260906050122 59 300 1.0 6.0 0.00 0.00 0.00 46 1016.3
20260906045122 60 338 1.0 2.0 0.00 0.00 0.00 46 1016.4
20260906044143 60 0 0.0 1.0 0.00 0.00 0.00 42 1016.4
20260906043122 61 320 1.0 3.0 0.00 0.00 0.00 43 1016.3
20260906042122 62 313 0.0 2.0 0.00 0.00 0.00 42 1016.3
20260906041122 63 0 0.0 0.0 0.00 0.00 0.00 41 1016.2
20260906040122 63 0 0.0 0.0 0.00 0.00 0.00 40 1016.1
20260906035122 63 352 0.0 1.0 0.00 0.00 0.00 38 1016.0
20260906034122 63 339 2.0 4.0 0.00 0.00 0.00 39 1015.9
20260906033122 65 252 0.0 2.0 0.00 0.00 0.00 42 1015.8
20260906032122 66 0 0.0 0.0 0.00 0.00 0.00 35 1015.7
20260906031122 67 0 0.0 1.0 0.00 0.00 0.00 37 1015.6
20260906030122 68 250 0.0 1.0 0.00 0.00 0.00 35 1015.5
20260906025122 69 250 0.0 2.0 0.00 0.00 0.00 33 1015.4
20260906024143 71 0 0.0 1.0 0.00 0.00 0.00 30 1015.2
20260906023122 71 318 1.0 3.0 0.00 0.00 0.00 27 1015.1
20260906022122 72 284 0.0 3.0 0.00 0.00 0.00 29 1015.0
20260906021122 73 14 1.0 6.0 0.00 0.00 0.00 24 1014.9
20260906020122 74 0 0.0 0.0 0.00 0.00 0.00 22 1014.9
20260906015122 75 193 0.0 1.0 0.00 0.00 0.00 24 1015.0
20260906014122 77 193 0.0 1.0 0.00 0.00 0.00 22 1015.0
20260906013143 78 0 0.0 0.0 0.00 0.00 0.00 22 1015.0
20260906012122 80 193 0.0 1.0 0.00 0.00 0.00 21 1015.2
20260906011143 81 192 0.0 2.0 0.00 0.00 0.00 22 1015.2
20260906010122 82 0 0.0 0.0 0.00 0.00 0.00 20 1015.2
20260906005122 82 203 0.0 2.0 0.00 0.00 0.00 16 1015.2
20260906004122 82 204 0.0 2.0 0.00 0.00 0.00 17 1015.1
20260906003122 82 202 1.0 3.0 0.00 0.00 0.00 17 1015.2
20260906002122 83 198 4.0 10.0 0.00 0.00 0.00 19 1015.2
20260906001122 83 180 2.0 7.0 0.00 0.00 0.00 14 1015.2
20260906000122 83 173 4.0 8.0 0.00 0.00 0.00 13 1015.2
20260905235143 83 193 5.0 14.0 0.00 0.00 0.00 19 1015.3
20260905234122 83 183 5.0 12.0 0.00 0.00 0.00 14 1015.4
20260905233122 83 178 4.0 14.0 0.00 0.00 0.00 15 1015.5
20260905232122 83 174 5.0 14.0 0.00 0.00 0.00 15 1015.6
20260905231122 84 201 5.0 11.0 0.00 0.00 0.00 15 1015.4
20260905230143 84 199 7.0 16.0 0.00 0.00 0.00 14 1015.6
20260905225143 85 168 2.0 5.0 0.00 0.00 0.00 14 1015.6
20260905224122 85 202 3.0 6.0 0.00 0.00 0.00 15 1015.7
20260905223122 86 174 3.0 8.0 0.00 0.00 0.00 14 1015.8
20260905222143 86 131 2.0 7.0 0.00 0.00 0.00 17 1015.9
20260905221122 85 181 3.0 8.0 0.00 0.00 0.00 14 1015.9
20260905220122 85 208 5.0 10.0 0.00 0.00 0.00 21 1016.2
20260905215122 86 199 6.0 13.0 0.00 0.00 0.00 16 1016.3
20260905214122 86 198 3.0 7.0 0.00 0.00 0.00 15 1016.2
20260905213122 85 144 4.0 9.0 0.00 0.00 0.00 14 1016.4
20260905212122 86 204 5.0 9.0 0.00 0.00 0.00 14 1016.3
20260905211122 85 194 2.0 6.0 0.00 0.00 0.00 19 1016.4
20260905210122 85 198 4.0 11.0 0.00 0.00 0.00 17 1016.4
20260905205143 85 201 4.0 11.0 0.00 0.00 0.00 15 1016.4
20260905204143 85 199 4.0 10.0 0.00 0.00 0.00 16 1016.5
20260905203122 85 194 5.0 9.0 0.00 0.00 0.00 16 1016.6
20260905202122 84 203 3.0 9.0 0.00 0.00 0.00 20 1016.7
20260905201122 84 199 3.0 8.0 0.00 0.00 0.00 16 1016.8
20260905200122 84 205 3.0 11.0 0.00 0.00 0.00 16 1016.9
20260905195122 83 203 4.0 10.0 0.00 0.00 0.00 17 1017.0
20260905194143 83 197 6.0 12.0 0.00 0.00 0.00 21 1017.0
20260905193122 83 202 4.0 9.0 0.00 0.00 0.00 16 1017.1
20260905192122 83 198 3.0 9.0 0.00 0.00 0.00 21 1017.1
20260905191122 82 200 5.0 13.0 0.00 0.00 0.00 20 1017.3
20260905190122 81 209 5.0 11.0 0.00 0.00 0.00 17 1017.4
20260905185122 81 196 4.0 9.0 0.00 0.00 0.00 17 1017.5
20260905184122 81 202 4.0 13.0 0.00 0.00 0.00 18 1017.6
20260905183122 81 208 6.0 14.0 0.00 0.00 0.00 17 1017.8
20260905182122 80 201 6.0 11.0 0.00 0.00 0.00 16 1017.9
20260905181143 80 201 6.0 12.0 0.00 0.00 0.00 17 1017.8
20260905180143 80 199 6.0 11.0 0.00 0.00 0.00 18 1017.9
20260905175122 79 204 6.0 13.0 0.00 0.00 0.00 20 1018.0
20260905174122 79 200 5.0 12.0 0.00 0.00 0.00 19 1018.1
20260905173122 79 202 6.0 16.0 0.00 0.00 0.00 22 1018.2
20260905172122 79 199 5.0 10.0 0.00 0.00 0.00 19 1018.2
20260905171122 79 196 6.0 14.0 0.00 0.00 0.00 18 1018.0
20260905170122 78 195 5.0 10.0 0.00 0.00 0.00 21 1018.2
20260905165122 78 196 5.0 10.0 0.00 0.00 0.00 20 1018.0
20260905164122 78 197 5.0 11.0 0.00 0.00 0.00 17 1018.0
20260905163122 78 192 4.0 10.0 0.00 0.00 0.00 19 1017.7
20260905162143 77 204 4.0 9.0 0.00 0.00 0.00 20 1017.7
20260905161122 77 162 2.0 11.0 0.00 0.00 0.00 26 1017.7
20260905160122 75 128 1.0 3.0 0.00 0.00 0.00 26 1017.6
20260905155122 74 143 1.0 3.0 0.00 0.00 0.00 27 1017.5
20260905154122 71 144 0.0 2.0 0.00 0.00 0.00 29 1017.4